When you browse on this site, cookies collect data to enhance your experience and personalize the content and advertising you see.
Visit our Privacy Policy to learn more. By continuing to use the site, you agree to this use of cookies and data.
  • In Latvia
  • List of Countries
  • For 7 days
  • Water Temperature
  • Weather Map
  • Weather Widgets
  • user-avatar
    Login

    Hourly Weather Zamiechow

    Today, 21 February, Friday

    Time Temperature Precipitation Wind Pressure Humidity
    00:00 +1°C° 0 mm 2 mps 746 mmHg 86%
    01:00 +1°C° 0 mm 2 mps 746 mmHg 87%
    02:00 -1°C° 0 mm 2 mps 746 mmHg 88%
    03:00 -1°C° 0 mm 2 mps 745 mmHg 85%
    04:00 0°C° 0 mm 3 mps 745 mmHg 82%
    05:00 0°C° 0 mm 3 mps 744 mmHg 79%
    06:00 0°C° 0 mm 3 mps 744 mmHg 77%
    07:00 -1°C° 0 mm 4 mps 743 mmHg 75%
    08:00 0°C° 0 mm 4 mps 743 mmHg 71%
    15:00 0°C° 0.6 mm 7 mps 743 mmHg 90%
    16:00 -1°C° 0.6 mm 7 mps 743 mmHg 93%
    17:00 -1°C° 0.6 mm 7 mps 744 mmHg 96%
    18:00 -1°C° 0.4 mm 6 mps 744 mmHg 94%
    19:00 +1°C° 0.4 mm 6 mps 745 mmHg 92%
    20:00 +1°C° 0.4 mm 5 mps 746 mmHg 90%
    21:00 0°C° 0 mm 5 mps 746 mmHg 88%
    22:00 0°C° 0 mm 4 mps 747 mmHg 86%
    23:00 0°C° 0 mm 4 mps 747 mmHg 84%

    Tomorrow, 22 February, Saturday

    Time Temperature Precipitation Wind Pressure Humidity
    00:00 0°C° 0 mm 4 mps 748 mmHg 86%
    01:00 0°C° 0 mm 4 mps 749 mmHg 88%
    02:00 0°C° 0 mm 4 mps 749 mmHg 90%
    03:00 0°C° 0 mm 3 mps 749 mmHg 92%
    04:00 0°C° 0 mm 3 mps 749 mmHg 93%
    05:00 -1°C° 0 mm 3 mps 749 mmHg 95%
    06:00 -1°C° 0 mm 2 mps 750 mmHg 94%
    07:00 -1°C° 0 mm 2 mps 750 mmHg 94%
    08:00 -1°C° 0 mm 2 mps 750 mmHg 94%
    09:00 +1°C° 0 mm 3 mps 750 mmHg 87%
    10:00 +2°C° 0 mm 3 mps 750 mmHg 80%
    11:00 +3°C° 0 mm 4 mps 750 mmHg 74%
    12:00 +3°C° 0 mm 5 mps 749 mmHg 68%
    13:00 +5°C° 0 mm 5 mps 749 mmHg 62%
    14:00 +5°C° 0 mm 6 mps 748 mmHg 55%
    15:00 +5°C° 0 mm 7 mps 747 mmHg 58%
    16:00 +4°C° 0 mm 7 mps 746 mmHg 61%
    17:00 +2°C° 0 mm 8 mps 745 mmHg 63%
    18:00 +2°C° 0 mm 8 mps 745 mmHg 64%
    19:00 +2°C° 0 mm 8 mps 745 mmHg 66%
    20:00 +2°C° 0 mm 9 mps 745 mmHg 67%
    21:00 +2°C° 0 mm 9 mps 744 mmHg 67%
    22:00 +2°C° 0 mm 9 mps 744 mmHg 66%
    23:00 +2°C° 0 mm 9 mps 744 mmHg 66%

    Day after tomorrow, 23 February, Sunday

    Time Temperature Precipitation Wind Pressure Humidity
    00:00 +2°C° 0 mm 9 mps 743 mmHg 66%
    01:00 +2°C° 0 mm 9 mps 743 mmHg 66%
    02:00 +2°C° 0 mm 8 mps 743 mmHg 66%
    03:00 +2°C° 0.1 mm 8 mps 742 mmHg 70%
    04:00 +2°C° 0.1 mm 9 mps 741 mmHg 73%
    05:00 +2°C° 0.1 mm 9 mps 741 mmHg 76%
    06:00 +2°C° 0.7 mm 8 mps 741 mmHg 80%
    07:00 +3°C° 0.7 mm 7 mps 741 mmHg 84%
    08:00 +2°C° 0.7 mm 7 mps 742 mmHg 88%
    09:00 +3°C° 0.7 mm 7 mps 742 mmHg 83%
    10:00 +2°C° 0.7 mm 8 mps 742 mmHg 77%
    11:00 +2°C° 0.7 mm 9 mps 742 mmHg 71%
    12:00 +2°C° 0.1 mm 9 mps 742 mmHg 69%
    13:00 +2°C° 0.1 mm 8 mps 742 mmHg 68%
    14:00 +4°C° 0.1 mm 8 mps 742 mmHg 66%
    15:00 +3°C° 0 mm 7 mps 741 mmHg 73%
    16:00 +2°C° 0 mm 6 mps 740 mmHg 80%
    17:00 +2°C° 0 mm 6 mps 739 mmHg 87%
    18:00 +2°C° 0.3 mm 5 mps 739 mmHg 89%
    19:00 +2°C° 0.3 mm 5 mps 738 mmHg 91%
    20:00 +3°C° 0.3 mm 4 mps 737 mmHg 93%
    21:00 +3°C° 1.7 mm 6 mps 735 mmHg 90%
    22:00 +4°C° 1.7 mm 7 mps 733 mmHg 88%
    23:00 +5°C° 1.7 mm 8 mps 731 mmHg 86%

    24 February, Monday

    Time Temperature Precipitation Wind Pressure Humidity
    00:00 +6°C° 2.3 mm 9 mps 729 mmHg 86%
    01:00 +7°C° 2.3 mm 10 mps 728 mmHg 85%
    02:00 +8°C° 2.3 mm 11 mps 727 mmHg 85%
    03:00 +5°C° 0.3 mm 12 mps 728 mmHg 83%
    04:00 +3°C° 0.3 mm 13 mps 729 mmHg 81%
    05:00 0°C° 0.3 mm 14 mps 730 mmHg 79%
    06:00 -1°C° 0.4 mm 13 mps 732 mmHg 82%
    07:00 -1°C° 0.4 mm 12 mps 735 mmHg 85%
    08:00 -2°C° 0.4 mm 11 mps 737 mmHg 88%
    09:00 -2°C° 0.2 mm 11 mps 738 mmHg 86%
    10:00 -2°C° 0.2 mm 10 mps 739 mmHg 83%
    11:00 0°C° 0.2 mm 10 mps 740 mmHg 81%
    12:00 0°C° 0.1 mm 10 mps 741 mmHg 80%
    13:00 +1°C° 0.1 mm 9 mps 741 mmHg 78%
    14:00 +1°C° 0.1 mm 9 mps 742 mmHg 76%
    15:00 +1°C° 0.1 mm 8 mps 743 mmHg 74%
    16:00 +2°C° 0.1 mm 7 mps 743 mmHg 72%
    17:00 +2°C° 0.1 mm 6 mps 744 mmHg 69%
    18:00 +2°C° 0 mm 5 mps 744 mmHg 72%
    19:00 +1°C° 0 mm 5 mps 745 mmHg 75%
    20:00 0°C° 0 mm 4 mps 745 mmHg 77%
    21:00 +1°C° 0 mm 3 mps 745 mmHg 79%
    22:00 0°C° 0 mm 3 mps 745 mmHg 81%
    23:00 0°C° 0 mm 3 mps 745 mmHg 83%

    25 February, Tuesday

    Time Temperature Precipitation Wind Pressure Humidity
    00:00 0°C° 0 mm 3 mps 744 mmHg 82%
    01:00 0°C° 0 mm 3 mps 744 mmHg 82%
    02:00 -1°C° 0 mm 3 mps 744 mmHg 81%
    03:00 -1°C° 0 mm 4 mps 743 mmHg 78%
    04:00 -1°C° 0 mm 5 mps 742 mmHg 75%
    05:00 -1°C° 0 mm 6 mps 741 mmHg 71%
    06:00 -1°C° 0 mm 6 mps 741 mmHg 70%
    07:00 0°C° 0 mm 7 mps 740 mmHg 69%
    08:00 +1°C° 0 mm 8 mps 739 mmHg 68%
    09:00 +1°C° 0 mm 8 mps 739 mmHg 68%
    10:00 +2°C° 0 mm 8 mps 739 mmHg 68%
    11:00 +4°C° 0 mm 8 mps 738 mmHg 68%
    12:00 +4°C° 0 mm 8 mps 738 mmHg 67%
    13:00 +5°C° 0 mm 8 mps 737 mmHg 66%
    14:00 +5°C° 0 mm 8 mps 737 mmHg 65%
    15:00 +5°C° 0 mm 8 mps 736 mmHg 65%
    16:00 +5°C° 0 mm 7 mps 736 mmHg 66%
    17:00 +4°C° 0 mm 7 mps 735 mmHg 67%
    18:00 +4°C° 0 mm 7 mps 735 mmHg 68%
    19:00 +4°C° 0 mm 7 mps 735 mmHg 69%
    20:00 +3°C° 0 mm 7 mps 735 mmHg 70%
    21:00 +3°C° 0 mm 7 mps 734 mmHg 70%
    22:00 +4°C° 0 mm 7 mps 734 mmHg 70%
    23:00 +4°C° 0 mm 7 mps 734 mmHg 70%

    26 February, Wednesday

    Time Temperature Precipitation Wind Pressure Humidity
    00:00 +4°C° 0 mm 6 mps 733 mmHg 72%
    01:00 +4°C° 0 mm 6 mps 733 mmHg 74%
    02:00 +4°C° 0 mm 6 mps 733 mmHg 75%
    03:00 +5°C° 0 mm 5 mps 732 mmHg 77%
    04:00 +5°C° 0 mm 5 mps 732 mmHg 78%
    05:00 +3°C° 0 mm 5 mps 731 mmHg 80%
    06:00 +3°C° 0 mm 5 mps 731 mmHg 81%
    07:00 +3°C° 0 mm 5 mps 731 mmHg 82%
    08:00 +3°C° 0 mm 6 mps 730 mmHg 84%
    09:00 +4°C° 0.2 mm 6 mps 730 mmHg 83%
    10:00 +4°C° 0.2 mm 6 mps 730 mmHg 82%
    11:00 +4°C° 0.2 mm 6 mps 730 mmHg 81%
    12:00 +5°C° 0.1 mm 6 mps 730 mmHg 72%
    13:00 +7°C° 0.1 mm 6 mps 729 mmHg 64%
    14:00 +7°C° 0.1 mm 5 mps 729 mmHg 55%
    15:00 +7°C° 0 mm 5 mps 729 mmHg 57%
    16:00 +7°C° 0 mm 4 mps 728 mmHg 59%
    17:00 +7°C° 0 mm 3 mps 728 mmHg 60%
    18:00 +7°C° 0 mm 3 mps 728 mmHg 65%
    19:00 +5°C° 0 mm 3 mps 728 mmHg 69%
    20:00 +4°C° 0 mm 3 mps 728 mmHg 73%
    21:00 +3°C° 0.1 mm 4 mps 729 mmHg 69%
    22:00 +2°C° 0.1 mm 5 mps 729 mmHg 65%
    23:00 +1°C° 0.1 mm 6 mps 729 mmHg 61%
    Show more